TimeEDT,TemperatureF,Dew PointF,Humidity,Sea Level PressureIn,VisibilityMPH,Wind Direction,Wind SpeedMPH,Gust SpeedMPH,PrecipitationIn,Events,Conditions,WindDirDegrees,DateUTC
12:53 AM,62.1,54.0,75,30.02,10.0,NW,3.5,-,N/A,,Clear,320,2013-06-15 04:53:00
1:53 AM,62.1,54.0,75,30.04,10.0,WNW,3.5,-,N/A,,Clear,300,2013-06-15 05:53:00
2:53 AM,61.0,55.0,81,30.03,10.0,Calm,Calm,-,N/A,,Clear,0,2013-06-15 06:53:00
3:53 AM,59.0,54.0,83,30.02,10.0,Calm,Calm,-,N/A,,Clear,0,2013-06-15 07:53:00
4:53 AM,59.0,54.0,83,30.02,10.0,Calm,Calm,-,N/A,,Clear,0,2013-06-15 08:53:00
5:53 AM,57.9,54.0,87,30.06,10.0,WNW,8.1,-,N/A,,Clear,300,2013-06-15 09:53:00
6:53 AM,59.0,54.0,83,30.08,10.0,Calm,Calm,-,N/A,,Clear,0,2013-06-15 10:53:00
7:53 AM,63.0,55.9,78,30.09,10.0,NW,3.5,-,N/A,,Clear,310,2013-06-15 11:53:00
8:53 AM,66.9,57.0,70,30.11,10.0,NW,4.6,-,N/A,,Clear,310,2013-06-15 12:53:00
9:53 AM,72.0,59.0,64,30.11,10.0,North,3.5,-,N/A,,Clear,360,2013-06-15 13:53:00
10:53 AM,75.0,55.9,51,30.11,10.0,Calm,Calm,-,N/A,,Clear,0,2013-06-15 14:53:00
11:53 AM,77.0,57.0,50,30.09,10.0,WSW,6.9,-,N/A,,Clear,240,2013-06-15 15:53:00
12:53 PM,79.0,57.9,48,30.08,10.0,SSW,6.9,-,N/A,,Clear,210,2013-06-15 16:53:00
1:53 PM,80.1,57.9,47,30.07,10.0,Variable,4.6,-,N/A,,Scattered Clouds,0,2013-06-15 17:53:00
2:53 PM,81.0,57.9,45,30.05,10.0,Calm,Calm,-,N/A,,Scattered Clouds,0,2013-06-15 18:53:00
3:53 PM,81.0,57.0,44,30.05,10.0,WSW,4.6,-,N/A,,Mostly Cloudy,250,2013-06-15 19:53:00
4:53 PM,82.0,59.0,45,30.03,10.0,SSW,6.9,-,N/A,,Scattered Clouds,200,2013-06-15 20:53:00
5:53 PM,81.0,59.0,47,30.02,10.0,South,6.9,-,N/A,,Partly Cloudy,180,2013-06-15 21:53:00
6:53 PM,80.1,59.0,48,30.02,10.0,SSW,5.8,-,N/A,,Clear,200,2013-06-15 22:53:00
7:53 PM,79.0,60.1,52,30.03,10.0,South,6.9,-,N/A,,Clear,190,2013-06-15 23:53:00
8:53 PM,75.0,60.1,60,30.02,10.0,South,5.8,-,N/A,,Clear,190,2013-06-16 00:53:00
9:53 PM,73.9,57.9,57,30.02,10.0,South,5.8,-,N/A,,Clear,190,2013-06-16 01:53:00
10:53 PM,73.0,57.9,59,30.04,10.0,SSW,4.6,-,N/A,,Overcast,210,2013-06-16 02:53:00
11:53 PM,70.0,59.0,68,30.06,10.0,Calm,Calm,-,N/A,,Mostly Cloudy,0,2013-06-16 03:53:00